Flag for Canada Weather past 2 weeks in Brantford, Ontario, Canada

Now
36 °F

Partly sunny.


Feels Like: 27 °F
Forecast: N/A
Wind: 14 mph from West

Location: Hamilton Airport

Current Time: Dec 28, 2014 at 4:31:12 PM

Latest Report: Dec 28, 2014 at 3:00 PM


Visibility: 15 mi

Pressure: 30.03 "Hg

Humidity: 65%

Dew point: 25 °F

Location of BrantfordLocation

Historic Weather in Brantford — Graph

°F

Brantford temperature yesterday

Maximum temperature yesterday: 48 °F (at 2:00 PM)
Minimum temperature yesterday: 34 °F (at 12:00 AM)
Average temperature yesterday: 42 °F

Past Weeks' High & Low Weather Summary

 TemperatureHumidityPressure
High52 °F (Dec 24, 9:00 PM)100% (Dec 13, 11:00 PM)30.35 "Hg (Dec 13, 11:00 PM)
Low16 °F (Dec 20, 7:00 AM)55% (Dec 20, 3:00 PM)29.19 "Hg (Dec 24, 9:00 PM)
Average34 °F87%30.02 "Hg
* Reported Dec 13 3:00 PM — Dec 28 3:00 PM, Brantford, Weather by CustomWeather, © 2014

Note: Actual official high and low records may vary slightly from our data, if they occured in-between our weather recording intervals... More about our weather records

Advertising

Brantford weather history for previous 24 hours

 ConditionsComfort  
Time TempWeatherWind HumidityBarometerVisibility
3:00 PM
Dec 28
36 °FPartly sunny.14 mph65%30.03 "Hg15 mi
2:00 PM36 °FPartly sunny.13 mph60%30.02 "Hg15 mi
1:00 PM36 °FMostly cloudy.10 mph65%30.02 "Hg15 mi
12:00 PM34 °FOvercast.9 mph70%30.05 "Hg15 mi
11:00 AM34 °FOvercast.8 mph65%30.06 "Hg15 mi
10:00 AM34 °FOvercast.10 mph70%30.05 "Hg15 mi
9:00 AM34 °FPartly sunny.13 mph70%30.03 "Hg15 mi
8:00 AM34 °FPartly sunny.12 mph75%30.02 "Hg15 mi
7:00 AM34 °FPassing clouds.10 mph75%29.99 "Hg15 mi
6:00 AM36 °FOvercast.12 mph75%29.96 "Hg15 mi
5:00 AM36 °FMostly cloudy.8 mph87%29.93 "Hg15 mi
4:00 AM37 °FLight rain. Overcast.8 mph87%29.91 "Hg15 mi
3:00 AM37 °FLight rain. Overcast.12 mph87%29.91 "Hg15 mi
2:00 AM37 °FLight rain. Fog.15 mph87%29.90 "Hg6 mi
1:00 AM39 °FLight rain. Overcast.16 mph87%29.90 "Hg10 mi
12:00 AM45 °FLight rain. Fog.16 mph87%29.88 "Hg5 mi
11:00 PM
Dec 27
46 °FLight rain. Overcast.18 mph87%29.88 "Hg8 mi
10:00 PM46 °FOvercast.22 mph87%29.88 "Hg15 mi
9:00 PM46 °FMostly cloudy.26 mph87%29.89 "Hg15 mi
8:00 PM46 °FMostly cloudy.24 mph87%29.93 "Hg15 mi
7:00 PM46 °FLight rain. Mostly cloudy.24 mph87%29.94 "Hg10 mi
6:00 PM46 °FLight rain. Overcast.21 mph82%29.95 "Hg15 mi
5:00 PM48 °FLight rain. Overcast.20 mph66%29.95 "Hg15 mi
4:00 PM48 °FPartly sunny.17 mph66%29.95 "Hg15 mi
Weather by CustomWeather, © 2014

See weather overviewHow to use our weather pages